Showing default

AISSAT 2, 40075

Orbit data source: Space-Track

AISSAT 2, 40075 is a payload satellite owned by NSC (NO) in SSO that was launched on Tue, 08 Jul 2014 UTC via a SOYUZ-2-1B launch vehicle from the Tyuratam Missile And Space Complex (TTMTR). Payloads include a variety of satellites, spacecraft, and rockets equipped with specific instruments for various scientific and technological missions. These include communications satellites like Starlink; space stations such as the ISS; scientific satellites like the Hubble; Earth observation satellites from companies like Planet Labs, Umbra, and HawkEye 360; GPS; miniature CubeSats for education and research; and military/defense satellites.

Loading next visibility...
AISSAT 2 details
Identifier
40075, 2014-037G
Orbit
SSO
Last TLE update19 hours ago
Origin
Flag of NONSC (NO / NOR)
ManufacturerUTIAS-SFL
MissionOperational Civil Communications
Bus & MotorGNB, Unknown motor
Mass7 kg wet, 7 kg dry
Launch date (UTC)
2014-07-08 (10 years ago)
Launch vehicle
SOYUZ-2-1B
Launch site
Tyuratam Missile And Space Complex (TTMTR)
Object type
Payload
Rocket body
Debris
Shape & HBRBox + 2 Ant, 1 m
Radar Cross Section0.093 m², Medium (>0.1 m² and < 1m²)

Expand to show TLE details & history

TLE from 19 hours ago
0 AISSAT 2
1 40075U 14037G   24360.68751016  .00007202  00000-0  76378-3 0  9995
2 40075  98.3432 289.6493 0003993 205.2587 154.8434 14.89408127566540
Epoch: 2024-12-25T16:30Z
Definitive object data (Epoch: 2024-12-25T16:30:00.877Z)
Latitude-0.00005°
Longitude-52.53203°
Altitude605.327 km
Speed7.555 km/s
True Right ascension19h 18m 35s
True Declination0° 00' 00"
Sunlit
Object was in daylight at TLE epoch
Visualization TLE readout
Latitude-74.37826°
Longitude-20.2549°
Altitude626.424 km
Speed7.544 km/s
Apparent Right ascension22h 28m 25s
Apparent Declination-58° 10' 34"
Sunlit
Object is in daylight
Visualization observer readout
Local Sidereal Time10:51:38
Azimuth170.395° S
Elevation-71.365°
Doppler factor1
Orbital elements
Apogee altitude599.618 km
Perigee altitude594.047 km
Semi-major axis6,974.969 km
Eccentricity0.0003993
Inclination98.3432°
RAAN289.6493°
Arg. of periapsis205.2587°
True anomaly154.86284°
Mean anomaly154.8434°
Eccentric anomaly154.85312°
Mean motion3.72589 °/min
BSTAR0.00076378
Orbital period96.62 mins
Loading maneuver chart data...
Loading historical data...
Loading historical data...
Loading historical data...
Loading historical data...
Loading historical data...
Loading historical data...
Loading historical data...

AISSAT 2 Visibility forecast

Observer location: undefined°, undefined

Span
Click to sort rows by Start time (UTC) header in descending order
Start Az.
Max El. time (UTC)
Max El. Az.
Max El.
End time (UTC)
End Az.
5 mins2024-12-26 18:27:16.823Z105.047° ESE2024-12-26 18:29:16.823Z74.804° E17.108°2024-12-26 18:32:16.823Z26.301° NE
6 mins2024-12-26 20:02:16.823Z200.76° SSW2024-12-26 20:05:16.823Z266.841° W30.834°2024-12-26 20:08:16.823Z324.625° NNW
6 mins2024-12-27 07:47:16.823Z46.936° ENE2024-12-27 07:49:16.823Z86.855° E26.737°2024-12-27 07:53:16.823Z159.844° S
4 mins2024-12-27 09:23:16.823Z326.671° NNW2024-12-27 09:25:16.823Z289.375° WNW19.762°2024-12-27 09:27:16.823Z254.521° W
|